Time,TemperatureF,DewpointF,PressureIn,WindDirection,WindDirectionDegrees,WindSpeedMPH,WindSpeedGustMPH,Humidity,HourlyPrecipIn,Conditions,Clouds,dailyrainin,SoftwareType,DateUTC
2013-07-01 00:01:00,78.3,69.7,29.84,West,271,2.0,5.0,75,0.00,,---,0.00,VWS V14.01,2013-07-01 05:01:00,
2013-07-01 00:06:00,78.1,69.9,29.84,West,281,5.0,6.0,76,0.00,,---,0.00,VWS V14.01,2013-07-01 05:06:00,
2013-07-01 00:11:00,77.9,69.7,29.84,West,269,6.0,7.0,76,0.00,,---,0.00,VWS V14.01,2013-07-01 05:11:00,
2013-07-01 00:16:00,77.7,69.9,29.84,WNW,282,3.0,7.0,77,0.00,,---,0.00,VWS V14.01,2013-07-01 05:16:00,
2013-07-01 00:21:00,77.6,69.8,29.84,West,276,5.0,7.0,77,0.00,,---,0.00,VWS V14.01,2013-07-01 05:21:00,
2013-07-01 00:26:00,77.7,69.9,29.84,West,278,4.0,7.0,77,0.00,,---,0.00,VWS V14.01,2013-07-01 05:26:00,
2013-07-01 00:31:00,77.7,69.9,29.84,WNW,303,2.0,7.0,77,0.00,,---,0.00,VWS V14.01,2013-07-01 05:31:00,
2013-07-01 00:36:00,77.6,69.8,29.84,West,278,4.0,7.0,77,0.00,,---,0.00,VWS V14.01,2013-07-01 05:36:00,
2013-07-01 00:41:00,77.4,70.0,29.85,NW,321,4.0,7.0,78,0.00,,---,0.00,VWS V14.01,2013-07-01 05:41:00,
2013-07-01 00:46:00,77.0,70.0,29.84,WNW,290,3.0,7.0,79,0.00,,---,0.00,VWS V14.01,2013-07-01 05:46:00,
2013-07-01 00:51:00,76.8,69.8,29.84,West,280,3.0,7.0,79,0.00,,---,0.00,VWS V14.01,2013-07-01 05:51:00,
2013-07-01 00:56:00,76.8,69.8,29.84,WNW,284,3.0,7.0,79,0.00,,---,0.00,VWS V14.01,2013-07-01 05:56:00,
2013-07-01 01:01:00,76.7,70.1,29.85,West,273,1.0,4.0,80,0.00,,---,0.00,VWS V14.01,2013-07-01 06:01:00,
2013-07-01 01:06:00,76.5,69.9,29.84,WNW,300,2.0,4.0,80,0.00,,---,0.00,VWS V14.01,2013-07-01 06:06:00,
2013-07-01 01:11:00,76.4,70.1,29.84,WNW,302,3.0,4.0,81,0.00,,---,0.00,VWS V14.01,2013-07-01 06:11:00,
2013-07-01 01:16:00,76.4,70.1,29.84,NW,304,2.0,5.0,81,0.00,,---,0.00,VWS V14.01,2013-07-01 06:16:00,
2013-07-01 01:21:00,76.4,70.1,29.84,NNW,330,3.0,6.0,81,0.00,,---,0.00,VWS V14.01,2013-07-01 06:21:00,
2013-07-01 01:26:00,76.5,70.2,29.84,NW,305,4.0,6.0,81,0.00,,---,0.00,VWS V14.01,2013-07-01 06:26:00,
2013-07-01 01:31:00,76.8,70.5,29.84,NW,312,1.0,6.0,81,0.00,,---,0.00,VWS V14.01,2013-07-01 06:31:00,
2013-07-01 01:36:00,77.1,70.8,29.85,West,272,2.0,6.0,81,0.00,,---,0.00,VWS V14.01,2013-07-01 06:36:00,
2013-07-01 01:41:00,77.3,70.7,29.84,NW,321,5.0,6.0,80,0.00,,---,0.00,VWS V14.01,2013-07-01 06:41:00,
2013-07-01 01:46:00,77.4,70.8,29.85,NW,309,3.0,6.0,80,0.00,,---,0.00,VWS V14.01,2013-07-01 06:46:00,
2013-07-01 01:51:00,77.5,70.8,29.84,WNW,291,4.0,6.0,80,0.00,,---,0.00,VWS V14.01,2013-07-01 06:51:00,
2013-07-01 01:56:00,77.6,70.9,29.84,West,277,4.0,6.0,80,0.00,,---,0.00,VWS V14.01,2013-07-01 06:56:00,
2013-07-01 02:01:00,77.7,71.0,29.84,WNW,293,3.0,7.0,80,0.00,,---,0.00,VWS V14.01,2013-07-01 07:01:00,
2013-07-01 02:06:00,77.8,71.1,29.84,West,281,3.0,7.0,80,0.00,,---,0.00,VWS V14.01,2013-07-01 07:06:00,
2013-07-01 02:11:00,77.9,71.2,29.84,WNW,288,2.0,7.0,80,0.00,,---,0.00,VWS V14.01,2013-07-01 07:11:00,
2013-07-01 02:16:00,77.9,71.2,29.84,NW,321,1.0,7.0,80,0.00,,---,0.00,VWS V14.01,2013-07-01 07:16:00,
2013-07-01 02:21:00,77.8,71.1,29.84,WNW,302,2.0,7.0,80,0.00,,---,0.00,VWS V14.01,2013-07-01 07:21:00,
2013-07-01 02:26:00,77.5,70.8,29.84,NW,321,1.0,7.0,80,0.00,,---,0.00,VWS V14.01,2013-07-01 07:26:00,
2013-07-01 02:31:00,77.2,70.9,29.84,WNW,288,1.0,7.0,81,0.00,,---,0.00,VWS V14.01,2013-07-01 07:31:00,
2013-07-01 02:36:00,76.9,71.0,29.84,WNW,285,3.0,7.0,82,0.00,,---,0.00,VWS V14.01,2013-07-01 07:36:00,
2013-07-01 02:41:00,76.7,71.2,29.84,WNW,297,2.0,7.0,83,0.00,,---,0.00,VWS V14.01,2013-07-01 07:41:00,
2013-07-01 02:46:00,76.4,70.9,29.84,WNW,298,3.0,7.0,83,0.00,,---,0.00,VWS V14.01,2013-07-01 07:46:00,
2013-07-01 02:51:00,76.2,71.0,29.84,WNW,302,0.0,7.0,84,0.00,,---,0.00,VWS V14.01,2013-07-01 07:51:00,
2013-07-01 02:56:00,76.1,70.9,29.84,WNW,291,1.0,7.0,84,0.00,,---,0.00,VWS V14.01,2013-07-01 07:56:00,
2013-07-01 03:01:00,76.0,71.2,29.84,NW,309,2.0,5.0,85,0.00,,---,0.00,VWS V14.01,2013-07-01 08:01:00,
2013-07-01 03:06:00,75.9,71.1,29.84,NNW,337,1.0,5.0,85,0.00,,---,0.00,VWS V14.01,2013-07-01 08:06:00,
2013-07-01 03:11:00,76.3,71.1,29.84,North,6,2.0,5.0,84,0.00,,---,0.00,VWS V14.01,2013-07-01 08:11:00,
2013-07-01 03:16:00,77.9,71.2,29.84,NNW,347,3.0,8.0,80,0.00,,---,0.00,VWS V14.01,2013-07-01 08:16:00,
2013-07-01 03:21:00,80.1,70.3,29.84,ENE,61,8.0,8.0,72,0.00,,---,0.00,VWS V14.01,2013-07-01 08:21:00,
2013-07-01 03:26:00,82.4,69.5,29.84,NNE,25,7.0,15.0,65,0.00,,---,0.00,VWS V14.01,2013-07-01 08:26:00,
2013-07-01 03:31:00,83.6,68.7,29.84,NE,53,10.0,15.0,61,0.00,,---,0.00,VWS V14.01,2013-07-01 08:31:00,
2013-07-01 03:36:00,84.0,68.1,29.84,NE,40,11.0,15.0,59,0.00,,---,0.00,VWS V14.01,2013-07-01 08:36:00,
2013-07-01 03:41:00,84.4,68.0,29.84,NE,46,11.0,16.0,58,0.00,,---,0.00,VWS V14.01,2013-07-01 08:41:00,
2013-07-01 03:46:00,84.6,67.2,29.84,NE,47,15.0,18.0,56,0.00,,---,0.00,VWS V14.01,2013-07-01 08:46:00,
2013-07-01 03:51:00,84.6,66.7,29.84,North,4,11.0,19.0,55,0.00,,---,0.00,VWS V14.01,2013-07-01 08:51:00,
2013-07-01 03:56:00,84.6,65.6,29.84,NE,53,16.0,21.0,53,0.00,,---,0.00,VWS V14.01,2013-07-01 08:56:00,
2013-07-01 04:01:00,84.6,65.6,29.84,ENE,64,12.0,18.0,53,0.00,,---,0.00,VWS V14.01,2013-07-01 09:01:00,
2013-07-01 04:06:00,84.6,65.6,29.84,NE,56,11.0,21.0,53,0.00,,---,0.00,VWS V14.01,2013-07-01 09:06:00,
2013-07-01 04:11:00,84.5,66.1,29.85,NE,35,11.0,21.0,54,0.00,,---,0.00,VWS V14.01,2013-07-01 09:11:00,
2013-07-01 04:16:00,84.3,65.9,29.85,NE,47,14.0,21.0,54,0.00,,---,0.00,VWS V14.01,2013-07-01 09:16:00,
2013-07-01 04:21:00,84.1,66.2,29.85,NNE,33,11.0,21.0,55,0.00,,---,0.00,VWS V14.01,2013-07-01 09:21:00,
2013-07-01 04:26:00,84.1,66.7,29.85,ENE,68,8.0,21.0,56,0.00,,---,0.00,VWS V14.01,2013-07-01 09:26:00,
2013-07-01 04:31:00,83.9,66.5,29.85,NNE,25,10.0,21.0,56,0.00,,---,0.00,VWS V14.01,2013-07-01 09:31:00,
2013-07-01 04:36:00,83.7,66.3,29.85,NNE,26,16.0,21.0,56,0.00,,---,0.00,VWS V14.01,2013-07-01 09:36:00,
2013-07-01 04:41:00,83.6,67.3,29.85,NE,42,10.0,21.0,58,0.00,,---,0.00,VWS V14.01,2013-07-01 09:41:00,
2013-07-01 04:46:00,83.4,67.6,29.85,NE,36,9.0,21.0,59,0.00,,---,0.00,VWS V14.01,2013-07-01 09:46:00,
2013-07-01 04:51:00,83.3,67.5,29.85,NE,44,16.0,21.0,59,0.00,,---,0.00,VWS V14.01,2013-07-01 09:51:00,
2013-07-01 04:56:00,83.1,67.8,29.85,NNE,32,14.0,21.0,60,0.00,,---,0.00,VWS V14.01,2013-07-01 09:56:00,
2013-07-01 05:01:00,82.9,67.6,29.86,ENE,57,7.0,13.0,60,0.00,,---,0.00,VWS V14.01,2013-07-01 10:01:00,
2013-07-01 05:06:00,82.9,68.1,29.86,ENE,58,11.0,18.0,61,0.00,,---,0.00,VWS V14.01,2013-07-01 10:06:00,
2013-07-01 05:11:00,82.8,68.0,29.86,NE,44,12.0,18.0,61,0.00,,---,0.00,VWS V14.01,2013-07-01 10:11:00,
2013-07-01 05:16:00,82.8,68.0,29.86,NE,47,9.0,20.0,61,0.00,,---,0.00,VWS V14.01,2013-07-01 10:16:00,
2013-07-01 05:21:00,82.9,67.6,29.86,NE,49,16.0,20.0,60,0.00,,---,0.00,VWS V14.01,2013-07-01 10:21:00,
2013-07-01 05:26:00,82.8,67.5,29.86,ENE,60,14.0,20.0,60,0.00,,---,0.00,VWS V14.01,2013-07-01 10:26:00,
2013-07-01 05:31:00,82.6,67.8,29.87,NNE,25,13.0,20.0,61,0.00,,---,0.00,VWS V14.01,2013-07-01 10:31:00,
2013-07-01 05:36:00,82.5,67.7,29.87,NE,56,9.0,20.0,61,0.00,,---,0.00,VWS V14.01,2013-07-01 10:36:00,
2013-07-01 05:41:00,82.4,67.6,29.87,ENE,61,13.0,20.0,61,0.00,,---,0.00,VWS V14.01,2013-07-01 10:41:00,
2013-07-01 05:46:00,82.3,68.0,29.87,ENE,59,7.0,20.0,62,0.00,,---,0.00,VWS V14.01,2013-07-01 10:46:00,
2013-07-01 05:51:00,82.1,67.8,29.87,NE,41,6.0,20.0,62,0.00,,---,0.00,VWS V14.01,2013-07-01 10:51:00,
2013-07-01 05:56:00,82.0,68.2,29.87,NE,49,8.0,20.0,63,0.00,,---,0.00,VWS V14.01,2013-07-01 10:56:00,
2013-07-01 06:01:00,81.8,68.0,29.87,NE,43,11.0,14.0,63,0.00,,---,0.00,VWS V14.01,2013-07-01 11:01:00,
2013-07-01 06:06:00,81.7,68.3,29.87,NE,43,12.0,17.0,64,0.00,,---,0.00,VWS V14.01,2013-07-01 11:06:00,
2013-07-01 06:11:00,81.7,67.9,29.87,NE,46,10.0,17.0,63,0.00,,---,0.00,VWS V14.01,2013-07-01 11:11:00,
2013-07-01 06:16:00,81.6,68.7,29.87,NE,46,8.0,17.0,65,0.00,,---,0.00,VWS V14.01,2013-07-01 11:16:00,
2013-07-01 06:21:00,81.5,68.2,29.87,ENE,65,13.0,17.0,64,0.00,,---,0.00,VWS V14.01,2013-07-01 11:21:00,
2013-07-01 06:26:00,81.6,68.2,29.88,NE,40,16.0,18.0,64,0.00,,---,0.00,VWS V14.01,2013-07-01 11:26:00,
2013-07-01 06:31:00,81.6,67.3,29.88,NE,51,15.0,19.0,62,0.00,,---,0.00,VWS V14.01,2013-07-01 11:31:00,
2013-07-01 06:36:00,81.6,67.8,29.88,NE,56,14.0,19.0,63,0.00,,---,0.00,VWS V14.01,2013-07-01 11:36:00,
2013-07-01 06:41:00,81.5,67.2,29.88,NNE,27,18.0,19.0,62,0.00,,---,0.00,VWS V14.01,2013-07-01 11:41:00,
2013-07-01 06:46:00,81.5,67.7,29.89,ENE,57,9.0,19.0,63,0.00,,---,0.00,VWS V14.01,2013-07-01 11:46:00,
2013-07-01 06:51:00,81.7,67.9,29.89,ENE,58,10.0,20.0,63,0.00,,---,0.00,VWS V14.01,2013-07-01 11:51:00,
2013-07-01 06:56:00,81.9,67.6,29.89,NE,44,15.0,21.0,62,0.00,,---,0.00,VWS V14.01,2013-07-01 11:56:00,
2013-07-01 07:01:00,82.0,67.7,29.89,NE,53,12.0,17.0,62,0.00,,---,0.00,VWS V14.01,2013-07-01 12:01:00,
2013-07-01 07:06:00,82.2,67.4,29.89,NE,46,18.0,21.0,61,0.00,,---,0.00,VWS V14.01,2013-07-01 12:06:00,
2013-07-01 07:11:00,82.2,67.9,29.89,NE,49,10.0,21.0,62,0.00,,---,0.00,VWS V14.01,2013-07-01 12:11:00,
2013-07-01 07:16:00,82.1,67.8,29.89,NE,51,8.0,21.0,62,0.00,,---,0.00,VWS V14.01,2013-07-01 12:16:00,
2013-07-01 07:21:00,82.1,67.8,29.89,NE,56,10.0,21.0,62,0.00,,---,0.00,VWS V14.01,2013-07-01 12:21:00,
2013-07-01 07:26:00,82.1,67.3,29.89,ENE,58,10.0,21.0,61,0.00,,---,0.00,VWS V14.01,2013-07-01 12:26:00,
2013-07-01 07:31:00,82.1,67.3,29.89,NNE,32,10.0,21.0,61,0.00,,---,0.00,VWS V14.01,2013-07-01 12:31:00,
2013-07-01 07:36:00,82.2,67.9,29.90,NE,50,10.0,21.0,62,0.00,,---,0.00,VWS V14.01,2013-07-01 12:36:00,
2013-07-01 07:41:00,82.3,68.0,29.90,NNE,21,12.0,21.0,62,0.00,,---,0.00,VWS V14.01,2013-07-01 12:41:00,
2013-07-01 07:46:00,82.4,69.5,29.90,NNE,23,12.0,21.0,65,0.00,,---,0.00,VWS V14.01,2013-07-01 12:46:00,
2013-07-01 07:51:00,82.2,69.3,29.90,NE,37,5.0,21.0,65,0.00,,---,0.00,VWS V14.01,2013-07-01 12:51:00,
2013-07-01 07:56:00,82.0,69.1,29.91,NE,45,6.0,21.0,65,0.00,,---,0.00,VWS V14.01,2013-07-01 12:56:00,
2013-07-01 08:01:00,81.9,69.0,29.91,NE,47,9.0,13.0,65,0.00,,---,0.00,VWS V14.01,2013-07-01 13:01:00,
2013-07-01 08:06:00,81.9,69.0,29.91,ENE,63,7.0,14.0,65,0.00,,---,0.00,VWS V14.01,2013-07-01 13:06:00,
2013-07-01 08:11:00,82.1,68.7,29.91,NNE,33,10.0,15.0,64,0.00,,---,0.00,VWS V14.01,2013-07-01 13:11:00,
2013-07-01 08:16:00,82.2,68.8,29.91,NE,38,12.0,17.0,64,0.00,,---,0.00,VWS V14.01,2013-07-01 13:16:00,
2013-07-01 08:21:00,82.4,68.6,29.91,NE,39,10.0,17.0,63,0.00,,---,0.00,VWS V14.01,2013-07-01 13:21:00,
2013-07-01 08:26:00,82.6,69.2,29.91,NE,42,9.0,17.0,64,0.00,,---,0.00,VWS V14.01,2013-07-01 13:26:00,
2013-07-01 08:31:00,82.6,68.7,29.91,NNE,25,17.0,17.0,63,0.00,,---,0.00,VWS V14.01,2013-07-01 13:31:00,
2013-07-01 08:36:00,82.7,69.3,29.92,NE,42,15.0,17.0,64,0.00,,---,0.00,VWS V14.01,2013-07-01 13:36:00,
2013-07-01 08:41:00,82.7,68.8,29.92,NNE,29,4.0,17.0,63,0.00,,---,0.00,VWS V14.01,2013-07-01 13:41:00,
2013-07-01 08:46:00,82.8,68.5,29.92,NE,44,16.0,17.0,62,0.00,,---,0.00,VWS V14.01,2013-07-01 13:46:00,
2013-07-01 08:51:00,82.8,68.5,29.92,NE,49,13.0,17.0,62,0.00,,---,0.00,VWS V14.01,2013-07-01 13:51:00,
2013-07-01 08:56:00,82.8,68.0,29.92,NNE,23,9.0,17.0,61,0.00,,---,0.00,VWS V14.01,2013-07-01 13:56:00,
2013-07-01 09:01:00,83.0,68.2,29.93,NE,40,8.0,12.0,61,0.00,,---,0.00,VWS V14.01,2013-07-01 14:01:00,
2013-07-01 09:06:00,83.1,68.7,29.93,NE,44,6.0,14.0,62,0.00,,---,0.00,VWS V14.01,2013-07-01 14:06:00,
2013-07-01 09:11:00,83.3,68.9,29.93,NE,44,9.0,14.0,62,0.00,,---,0.00,VWS V14.01,2013-07-01 14:11:00,
2013-07-01 09:16:00,83.5,68.7,29.93,NNE,32,11.0,15.0,61,0.00,,---,0.00,VWS V14.01,2013-07-01 14:16:00,
2013-07-01 09:21:00,83.6,68.7,29.93,NE,55,10.0,15.0,61,0.00,,---,0.00,VWS V14.01,2013-07-01 14:21:00,
2013-07-01 09:26:00,83.5,68.2,29.93,NE,41,14.0,15.0,60,0.00,,---,0.00,VWS V14.01,2013-07-01 14:26:00,
2013-07-01 09:31:00,83.4,67.6,29.93,NE,46,12.0,15.0,59,0.00,,---,0.00,VWS V14.01,2013-07-01 14:31:00,
2013-07-01 09:36:00,83.7,67.9,29.93,NNE,33,7.0,15.0,59,0.00,,---,0.00,VWS V14.01,2013-07-01 14:36:00,
2013-07-01 09:41:00,84.1,67.7,29.94,NNE,29,12.0,15.0,58,0.00,,---,0.00,VWS V14.01,2013-07-01 14:41:00,
2013-07-01 09:46:00,83.8,68.0,29.94,NNE,13,7.0,15.0,59,0.00,,---,0.00,VWS V14.01,2013-07-01 14:46:00,
2013-07-01 09:51:00,83.9,67.6,29.94,NE,38,6.0,15.0,58,0.00,,---,0.00,VWS V14.01,2013-07-01 14:51:00,
2013-07-01 09:56:00,84.3,67.4,29.94,NE,49,8.0,15.0,57,0.00,,---,0.00,VWS V14.01,2013-07-01 14:56:00,
2013-07-01 10:01:00,84.6,68.2,29.94,NNE,29,7.0,15.0,58,0.00,,---,0.00,VWS V14.01,2013-07-01 15:01:00,
2013-07-01 10:06:00,84.7,67.3,29.94,NE,56,9.0,15.0,56,0.00,,---,0.00,VWS V14.01,2013-07-01 15:06:00,
2013-07-01 10:11:00,84.9,67.5,29.94,NE,48,10.0,15.0,56,0.00,,---,0.00,VWS V14.01,2013-07-01 15:11:00,
2013-07-01 10:16:00,85.3,66.8,29.94,NE,51,12.0,15.0,54,0.00,,---,0.00,VWS V14.01,2013-07-01 15:16:00,
2013-07-01 10:21:00,85.4,67.4,29.94,NNE,18,14.0,15.0,55,0.00,,---,0.00,VWS V14.01,2013-07-01 15:21:00,
2013-07-01 10:26:00,85.7,68.2,29.94,NNW,332,4.0,15.0,56,0.00,,---,0.00,VWS V14.01,2013-07-01 15:26:00,
2013-07-01 10:31:00,86.1,67.5,29.94,NNE,30,3.0,15.0,54,0.00,,---,0.00,VWS V14.01,2013-07-01 15:31:00,
2013-07-01 10:36:00,86.2,68.2,29.94,North,6,4.0,15.0,55,0.00,,---,0.00,VWS V14.01,2013-07-01 15:36:00,
2013-07-01 10:41:00,86.2,66.0,29.94,NNE,14,8.0,15.0,51,0.00,,---,0.00,VWS V14.01,2013-07-01 15:41:00,
2013-07-01 10:46:00,86.3,66.6,29.94,NE,54,10.0,15.0,52,0.00,,---,0.00,VWS V14.01,2013-07-01 15:46:00,
2013-07-01 10:51:00,86.2,65.4,29.94,NNE,27,8.0,15.0,50,0.00,,---,0.00,VWS V14.01,2013-07-01 15:51:00,
2013-07-01 10:56:00,86.5,63.9,29.94,NE,43,10.0,15.0,47,0.00,,---,0.00,VWS V14.01,2013-07-01 15:56:00,
2013-07-01 11:01:00,86.8,64.2,29.94,NNE,22,8.0,12.0,47,0.00,,---,0.00,VWS V14.01,2013-07-01 16:01:00,
2013-07-01 11:06:00,87.0,64.3,29.94,ESE,106,6.0,12.0,47,0.00,,---,0.00,VWS V14.01,2013-07-01 16:06:00,
2013-07-01 11:11:00,87.3,62.7,29.94,North,352,5.0,14.0,44,0.00,,---,0.00,VWS V14.01,2013-07-01 16:11:00,
2013-07-01 11:16:00,87.7,63.8,29.94,NNE,25,6.0,14.0,45,0.00,,---,0.00,VWS V14.01,2013-07-01 16:16:00,
2013-07-01 11:21:00,88.1,60.8,29.94,NE,49,10.0,14.0,40,0.00,,---,0.00,VWS V14.01,2013-07-01 16:21:00,
2013-07-01 11:26:00,87.9,59.9,29.94,NE,49,6.0,14.0,39,0.00,,---,0.00,VWS V14.01,2013-07-01 16:26:00,
2013-07-01 11:31:00,88.3,61.6,29.94,North,350,9.0,14.0,41,0.00,,---,0.00,VWS V14.01,2013-07-01 16:31:00,
2013-07-01 11:36:00,88.3,60.2,29.94,NE,53,7.0,14.0,39,0.00,,---,0.00,VWS V14.01,2013-07-01 16:36:00,
2013-07-01 11:41:00,88.4,61.7,29.94,NE,54,10.0,14.0,41,0.00,,---,0.00,VWS V14.01,2013-07-01 16:41:00,
2013-07-01 11:46:00,88.8,61.4,29.94,NE,34,4.0,14.0,40,0.00,,---,0.00,VWS V14.01,2013-07-01 16:46:00,
2013-07-01 11:51:00,89.5,61.3,29.94,NE,55,3.0,14.0,39,0.00,,---,0.00,VWS V14.01,2013-07-01 16:51:00,
2013-07-01 11:56:00,89.4,60.5,29.94,NNW,342,3.0,14.0,38,0.00,,---,0.00,VWS V14.01,2013-07-01 16:56:00,
2013-07-01 12:01:00,89.2,61.0,29.94,NE,42,6.0,9.0,39,0.00,,---,0.00,VWS V14.01,2013-07-01 17:01:00,
2013-07-01 12:06:00,89.2,61.0,29.93,NNE,33,1.0,9.0,39,0.00,,---,0.00,VWS V14.01,2013-07-01 17:06:00,
2013-07-01 12:11:00,89.2,61.0,29.93,NE,49,6.0,9.0,39,0.00,,---,0.00,VWS V14.01,2013-07-01 17:11:00,
2013-07-01 12:16:00,89.5,61.3,29.93,ENE,65,2.0,9.0,39,0.00,,---,0.00,VWS V14.01,2013-07-01 17:16:00,
2013-07-01 12:21:00,89.9,60.9,29.93,NNW,328,4.0,9.0,38,0.00,,---,0.00,VWS V14.01,2013-07-01 17:21:00,
2013-07-01 12:26:00,90.2,60.4,29.94,NE,55,9.0,9.0,37,0.00,,---,0.00,VWS V14.01,2013-07-01 17:26:00,
2013-07-01 12:31:00,89.8,59.3,29.93,NNE,33,6.0,10.0,36,0.00,,---,0.00,VWS V14.01,2013-07-01 17:31:00,
2013-07-01 12:36:00,89.4,57.4,29.93,NNE,19,3.0,13.0,34,0.00,,---,0.00,VWS V14.01,2013-07-01 17:36:00,
2013-07-01 12:41:00,89.6,59.1,29.93,NE,55,8.0,13.0,36,0.00,,---,0.00,VWS V14.01,2013-07-01 17:41:00,
2013-07-01 12:46:00,90.0,61.0,29.93,NE,47,0.0,13.0,38,0.00,,---,0.00,VWS V14.01,2013-07-01 17:46:00,
2013-07-01 12:51:00,90.4,59.8,29.93,NE,36,3.0,13.0,36,0.00,,---,0.00,VWS V14.01,2013-07-01 17:51:00,
2013-07-01 12:56:00,90.9,60.3,29.93,NE,36,6.0,13.0,36,0.00,,---,0.00,VWS V14.01,2013-07-01 17:56:00,
2013-07-01 13:01:00,90.7,58.5,29.93,ENE,70,3.0,8.0,34,0.00,,---,0.00,VWS V14.01,2013-07-01 18:01:00,
2013-07-01 13:06:00,90.5,58.3,29.93,East,96,7.0,9.0,34,0.00,,---,0.00,VWS V14.01,2013-07-01 18:06:00,
2013-07-01 13:11:00,90.2,58.9,29.93,East,82,3.0,9.0,35,0.00,,---,0.00,VWS V14.01,2013-07-01 18:11:00,
2013-07-01 13:16:00,90.5,58.3,29.92,NE,51,7.0,11.0,34,0.00,,---,0.00,VWS V14.01,2013-07-01 18:16:00,
2013-07-01 13:21:00,90.4,59.0,29.92,NE,34,0.0,11.0,35,0.00,,---,0.00,VWS V14.01,2013-07-01 18:21:00,
2013-07-01 13:26:00,90.3,59.0,29.92,East,85,0.0,11.0,35,0.00,,---,0.00,VWS V14.01,2013-07-01 18:26:00,
2013-07-01 13:31:00,91.2,60.5,29.92,East,89,2.0,11.0,36,0.00,,---,0.00,VWS V14.01,2013-07-01 18:31:00,
2013-07-01 13:36:00,91.1,59.7,29.92,NNE,32,4.0,11.0,35,0.00,,---,0.00,VWS V14.01,2013-07-01 18:36:00,
2013-07-01 13:41:00,90.9,58.7,29.92,East,83,7.0,11.0,34,0.00,,---,0.00,VWS V14.01,2013-07-01 18:41:00,
2013-07-01 13:46:00,90.7,59.3,29.92,East,96,5.0,11.0,35,0.00,,---,0.00,VWS V14.01,2013-07-01 18:46:00,
2013-07-01 13:51:00,91.1,59.7,29.92,NE,53,4.0,11.0,35,0.00,,---,0.00,VWS V14.01,2013-07-01 18:51:00,
2013-07-01 13:56:00,91.4,60.7,29.91,WNW,290,0.0,11.0,36,0.00,,---,0.00,VWS V14.01,2013-07-01 18:56:00,
2013-07-01 14:01:00,92.0,58.8,29.91,SW,232,0.0,4.0,33,0.00,,---,0.00,VWS V14.01,2013-07-01 19:01:00,
2013-07-01 14:06:00,91.6,63.9,29.91,East,95,6.0,8.0,40,0.00,,---,0.00,VWS V14.01,2013-07-01 19:06:00,
2013-07-01 14:11:00,91.3,63.6,29.91,ENE,65,0.0,8.0,40,0.00,,---,0.00,VWS V14.01,2013-07-01 19:11:00,
2013-07-01 14:16:00,91.3,62.9,29.91,SSE,149,0.0,9.0,39,0.00,,---,0.00,VWS V14.01,2013-07-01 19:16:00,
2013-07-01 14:21:00,91.4,63.7,29.91,ENE,72,4.0,9.0,40,0.00,,---,0.00,VWS V14.01,2013-07-01 19:21:00,
2013-07-01 14:26:00,91.3,62.9,29.91,East,96,5.0,9.0,39,0.00,,---,0.00,VWS V14.01,2013-07-01 19:26:00,
2013-07-01 14:31:00,90.9,66.0,29.91,ESE,122,4.0,9.0,44,0.00,,---,0.00,VWS V14.01,2013-07-01 19:31:00,
2013-07-01 14:36:00,91.1,62.0,29.90,SE,124,5.0,9.0,38,0.00,,---,0.00,VWS V14.01,2013-07-01 19:36:00,
2013-07-01 14:41:00,90.5,62.9,29.90,NE,53,5.0,11.0,40,0.00,,---,0.00,VWS V14.01,2013-07-01 19:41:00,
2013-07-01 14:46:00,90.4,64.2,29.90,ENE,60,0.0,11.0,42,0.00,,---,0.00,VWS V14.01,2013-07-01 19:46:00,
2013-07-01 14:51:00,90.7,64.5,29.90,ENE,75,3.0,11.0,42,0.00,,---,0.00,VWS V14.01,2013-07-01 19:51:00,
2013-07-01 14:56:00,90.9,64.0,29.90,ENE,78,5.0,11.0,41,0.00,,---,0.00,VWS V14.01,2013-07-01 19:56:00,
2013-07-01 15:01:00,91.1,64.8,29.90,ENE,66,13.0,13.0,42,0.00,,---,0.00,VWS V14.01,2013-07-01 20:01:00,
2013-07-01 15:06:00,91.5,60.8,29.90,NE,41,6.0,13.0,36,0.00,,---,0.00,VWS V14.01,2013-07-01 20:06:00,
2013-07-01 15:11:00,90.6,65.7,29.90,NE,53,7.0,13.0,44,0.00,,---,0.00,VWS V14.01,2013-07-01 20:11:00,
2013-07-01 15:16:00,90.8,64.6,29.90,East,101,5.0,14.0,42,0.00,,---,0.00,VWS V14.01,2013-07-01 20:16:00,
2013-07-01 15:21:00,90.7,66.5,29.90,ESE,121,6.0,14.0,45,0.00,,---,0.00,VWS V14.01,2013-07-01 20:21:00,
2013-07-01 15:26:00,90.6,67.6,29.89,ENE,70,7.0,14.0,47,0.00,,---,0.00,VWS V14.01,2013-07-01 20:26:00,
2013-07-01 15:31:00,90.6,66.4,29.90,East,98,9.0,14.0,45,0.00,,---,0.00,VWS V14.01,2013-07-01 20:31:00,
2013-07-01 15:36:00,89.7,68.6,29.89,ESE,110,9.0,14.0,50,0.00,,---,0.00,VWS V14.01,2013-07-01 20:36:00,
2013-07-01 15:41:00,89.1,70.3,29.89,ESE,122,5.0,14.0,54,0.00,,---,0.00,VWS V14.01,2013-07-01 20:41:00,
2013-07-01 15:46:00,88.1,68.8,29.89,East,98,8.0,14.0,53,0.00,,---,0.00,VWS V14.01,2013-07-01 20:46:00,
2013-07-01 15:51:00,88.1,68.8,29.89,East,91,6.0,14.0,53,0.00,,---,0.00,VWS V14.01,2013-07-01 20:51:00,
2013-07-01 15:56:00,87.8,71.2,29.89,East,79,10.0,14.0,58,0.00,,---,0.00,VWS V14.01,2013-07-01 20:56:00,
2013-07-01 16:01:00,87.6,70.0,29.88,ENE,76,6.0,10.0,56,0.00,,---,0.00,VWS V14.01,2013-07-01 21:01:00,
2013-07-01 16:06:00,87.6,70.0,29.89,ESE,102,10.0,14.0,56,0.00,,---,0.00,VWS V14.01,2013-07-01 21:06:00,
2013-07-01 16:11:00,87.4,69.8,29.88,ESE,103,6.0,14.0,56,0.00,,---,0.00,VWS V14.01,2013-07-01 21:11:00,
2013-07-01 16:16:00,87.0,69.9,29.88,ESE,107,6.0,14.0,57,0.00,,---,0.00,VWS V14.01,2013-07-01 21:16:00,
2013-07-01 16:21:00,87.0,70.4,29.88,ESE,103,5.0,14.0,58,0.00,,---,0.00,VWS V14.01,2013-07-01 21:21:00,
2013-07-01 16:26:00,87.0,69.9,29.88,East,90,5.0,14.0,57,0.00,,---,0.00,VWS V14.01,2013-07-01 21:26:00,
2013-07-01 16:31:00,87.2,69.6,29.88,ENE,63,5.0,14.0,56,0.00,,---,0.00,VWS V14.01,2013-07-01 21:31:00,
2013-07-01 16:36:00,87.4,70.3,29.88,ESE,115,13.0,14.0,57,0.00,,---,0.00,VWS V14.01,2013-07-01 21:36:00,
2013-07-01 16:41:00,86.8,70.3,29.88,ESE,107,8.0,14.0,58,0.00,,---,0.00,VWS V14.01,2013-07-01 21:41:00,
2013-07-01 16:46:00,86.6,71.1,29.88,East,83,4.0,14.0,60,0.00,,---,0.00,VWS V14.01,2013-07-01 21:46:00,
2013-07-01 16:51:00,86.6,71.1,29.88,East,92,10.0,17.0,60,0.00,,---,0.00,VWS V14.01,2013-07-01 21:51:00,
2013-07-01 16:56:00,86.6,71.6,29.88,NE,56,12.0,17.0,61,0.00,,---,0.00,VWS V14.01,2013-07-01 21:56:00,
2013-07-01 17:01:00,86.3,70.3,29.88,ESE,116,13.0,14.0,59,0.00,,---,0.00,VWS V14.01,2013-07-01 22:01:00,
2013-07-01 17:06:00,86.1,71.6,29.88,East,97,10.0,14.0,62,0.00,,---,0.00,VWS V14.01,2013-07-01 22:06:00,
2013-07-01 17:11:00,86.0,71.5,29.87,ENE,75,8.0,15.0,62,0.00,,---,0.00,VWS V14.01,2013-07-01 22:11:00,
2013-07-01 17:16:00,85.7,71.2,29.87,ESE,110,13.0,17.0,62,0.00,,---,0.00,VWS V14.01,2013-07-01 22:16:00,
2013-07-01 17:21:00,86.0,70.5,29.87,ENE,70,7.0,17.0,60,0.00,,---,0.00,VWS V14.01,2013-07-01 22:21:00,
2013-07-01 17:26:00,85.9,70.4,29.88,ESE,117,10.0,17.0,60,0.00,,---,0.00,VWS V14.01,2013-07-01 22:26:00,
2013-07-01 17:31:00,85.9,70.4,29.88,ENE,70,7.0,17.0,60,0.00,,---,0.00,VWS V14.01,2013-07-01 22:31:00,
2013-07-01 17:36:00,85.9,70.4,29.88,East,83,18.0,18.0,60,0.00,,---,0.00,VWS V14.01,2013-07-01 22:36:00,
2013-07-01 17:41:00,85.7,70.7,29.88,ESE,108,11.0,18.0,61,0.00,,---,0.00,VWS V14.01,2013-07-01 22:41:00,
2013-07-01 17:46:00,85.6,70.1,29.88,East,81,10.0,18.0,60,0.00,,---,0.00,VWS V14.01,2013-07-01 22:46:00,
2013-07-01 17:51:00,85.5,71.0,29.88,East,97,8.0,18.0,62,0.00,,---,0.00,VWS V14.01,2013-07-01 22:51:00,
2013-07-01 17:56:00,85.4,71.4,29.88,SE,129,9.0,18.0,63,0.00,,---,0.00,VWS V14.01,2013-07-01 22:56:00,
2013-07-01 18:01:00,85.2,71.7,29.88,SE,133,7.0,12.0,64,0.00,,---,0.00,VWS V14.01,2013-07-01 23:01:00,
2013-07-01 18:06:00,85.0,71.9,29.89,ESE,113,4.0,13.0,65,0.00,,---,0.00,VWS V14.01,2013-07-01 23:06:00,
2013-07-01 18:11:00,84.8,71.7,29.88,SE,129,7.0,15.0,65,0.00,,---,0.00,VWS V14.01,2013-07-01 23:11:00,
2013-07-01 18:16:00,84.7,72.5,29.89,SSE,159,7.0,15.0,67,0.00,,---,0.00,VWS V14.01,2013-07-01 23:16:00,
2013-07-01 18:21:00,84.7,72.1,29.88,East,81,11.0,15.0,66,0.00,,---,0.00,VWS V14.01,2013-07-01 23:21:00,
2013-07-01 18:26:00,84.7,72.5,29.89,ESE,122,3.0,15.0,67,0.00,,---,0.00,VWS V14.01,2013-07-01 23:26:00,
2013-07-01 18:31:00,84.8,72.6,29.89,East,90,4.0,15.0,67,0.00,,---,0.00,VWS V14.01,2013-07-01 23:31:00,
2013-07-01 18:36:00,84.7,73.0,29.89,ESE,117,5.0,15.0,68,0.00,,---,0.00,VWS V14.01,2013-07-01 23:36:00,
2013-07-01 18:41:00,84.5,72.3,29.89,East,88,4.0,15.0,67,0.00,,---,0.00,VWS V14.01,2013-07-01 23:41:00,
2013-07-01 18:42:00,84.5,72.3,29.89,ESE,113,7.0,15.0,67,0.00,,---,0.00,VWS V14.01,2013-07-01 23:42:00,
2013-07-01 18:47:00,84.2,72.1,29.89,SE,124,6.0,15.0,67,0.00,,---,0.00,VWS V14.01,2013-07-01 23:47:00,
2013-07-01 18:52:00,84.0,71.9,29.90,ESE,102,9.0,15.0,67,0.00,,---,0.00,VWS V14.01,2013-07-01 23:52:00,
2013-07-01 18:57:00,83.9,72.2,29.90,East,82,8.0,15.0,68,0.00,,---,0.00,VWS V14.01,2013-07-01 23:57:00,
2013-07-01 19:02:00,83.9,72.7,29.90,ENE,68,4.0,11.0,69,0.00,,---,0.00,VWS V14.01,2013-07-02 00:02:00,
2013-07-01 19:07:00,83.8,73.0,29.90,ESE,103,8.0,12.0,70,0.00,,---,0.00,VWS V14.01,2013-07-02 00:07:00,
2013-07-01 19:12:00,83.7,73.3,29.90,ESE,117,7.0,12.0,71,0.00,,---,0.00,VWS V14.01,2013-07-02 00:12:00,
2013-07-01 19:17:00,83.6,72.4,29.91,East,88,9.0,13.0,69,0.00,,---,0.00,VWS V14.01,2013-07-02 00:17:00,
2013-07-01 19:22:00,83.5,72.3,29.91,ENE,74,8.0,13.0,69,0.00,,---,0.00,VWS V14.01,2013-07-02 00:22:00,
2013-07-01 19:27:00,83.3,72.5,29.91,ESE,113,10.0,13.0,70,0.00,,---,0.00,VWS V14.01,2013-07-02 00:27:00,
2013-07-01 19:32:00,83.2,72.8,29.91,ENE,70,2.0,13.0,71,0.00,,---,0.00,VWS V14.01,2013-07-02 00:32:00,
2013-07-01 19:37:00,83.2,72.8,29.91,East,86,4.0,13.0,71,0.00,,---,0.00,VWS V14.01,2013-07-02 00:37:00,
2013-07-01 19:42:00,83.0,72.2,29.91,East,97,7.0,13.0,70,0.00,,---,0.00,VWS V14.01,2013-07-02 00:42:00,
2013-07-01 19:47:00,83.1,72.7,29.92,East,79,6.0,13.0,71,0.00,,---,0.00,VWS V14.01,2013-07-02 00:47:00,
2013-07-01 19:52:00,83.0,72.6,29.92,SE,124,4.0,13.0,71,0.00,,---,0.00,VWS V14.01,2013-07-02 00:52:00,
2013-07-01 19:57:00,82.9,72.9,29.92,East,81,5.0,13.0,72,0.00,,---,0.00,VWS V14.01,2013-07-02 00:57:00,
2013-07-01 20:02:00,82.7,72.8,29.92,East,94,8.0,8.0,72,0.00,,---,0.00,VWS V14.01,2013-07-02 01:02:00,
2013-07-01 20:07:00,82.4,72.5,29.92,ESE,107,9.0,11.0,72,0.00,,---,0.00,VWS V14.01,2013-07-02 01:07:00,
2013-07-01 20:12:00,82.3,72.4,29.92,ESE,105,6.0,12.0,72,0.00,,---,0.00,VWS V14.01,2013-07-02 01:12:00,
2013-07-01 20:17:00,82.3,72.4,29.92,East,86,8.0,12.0,72,0.00,,---,0.00,VWS V14.01,2013-07-02 01:17:00,
2013-07-01 20:22:00,82.2,72.3,29.92,SE,125,7.0,12.0,72,0.00,,---,0.00,VWS V14.01,2013-07-02 01:22:00,
2013-07-01 20:27:00,82.1,71.8,29.92,East,79,6.0,12.0,71,0.00,,---,0.00,VWS V14.01,2013-07-02 01:27:00,
2013-07-01 20:32:00,82.1,71.8,29.93,ENE,73,3.0,12.0,71,0.00,,---,0.00,VWS V14.01,2013-07-02 01:32:00,
2013-07-01 20:37:00,81.9,71.6,29.93,East,88,4.0,12.0,71,0.00,,---,0.00,VWS V14.01,2013-07-02 01:37:00,
2013-07-01 20:42:00,81.9,72.0,29.93,ENE,76,2.0,12.0,72,0.00,,---,0.00,VWS V14.01,2013-07-02 01:42:00,
2013-07-01 20:47:00,81.8,71.9,29.93,SE,133,2.0,12.0,72,0.00,,---,0.00,VWS V14.01,2013-07-02 01:47:00,
2013-07-01 20:52:00,81.7,71.8,29.93,SE,127,2.0,12.0,72,0.00,,---,0.00,VWS V14.01,2013-07-02 01:52:00,
2013-07-01 20:57:00,81.7,71.4,29.93,East,89,2.0,12.0,71,0.00,,---,0.00,VWS V14.01,2013-07-02 01:57:00,
2013-07-01 21:02:00,81.7,71.8,29.93,East,82,1.0,6.0,72,0.00,,---,0.00,VWS V14.01,2013-07-02 02:02:00,
2013-07-01 21:07:00,81.6,71.7,29.93,East,86,2.0,6.0,72,0.00,,---,0.00,VWS V14.01,2013-07-02 02:07:00,
2013-07-01 21:12:00,81.4,71.5,29.93,ENE,71,4.0,6.0,72,0.00,,---,0.00,VWS V14.01,2013-07-02 02:12:00,
2013-07-01 21:17:00,81.4,71.5,29.94,ESE,114,1.0,6.0,72,0.00,,---,0.00,VWS V14.01,2013-07-02 02:17:00,
2013-07-01 21:22:00,81.4,71.5,29.94,East,98,2.0,6.0,72,0.00,,---,0.00,VWS V14.01,2013-07-02 02:22:00,
2013-07-01 21:27:00,81.4,71.5,29.94,ESE,115,3.0,6.0,72,0.00,,---,0.00,VWS V14.01,2013-07-02 02:27:00,
2013-07-01 21:32:00,81.3,71.4,29.94,ESE,102,1.0,6.0,72,0.00,,---,0.00,VWS V14.01,2013-07-02 02:32:00,
2013-07-01 21:37:00,81.3,71.8,29.94,East,98,4.0,6.0,73,0.00,,---,0.00,VWS V14.01,2013-07-02 02:37:00,
2013-07-01 21:41:00,81.2,71.3,29.94,East,89,3.0,6.0,72,0.00,,---,0.00,VWS V14.01,2013-07-02 02:41:00,
2013-07-01 21:46:00,81.2,71.3,29.94,East,86,2.0,6.0,72,0.00,,---,0.00,VWS V14.01,2013-07-02 02:46:00,
2013-07-01 21:51:00,81.2,71.7,29.94,East,101,2.0,6.0,73,0.00,,---,0.00,VWS V14.01,2013-07-02 02:51:00,
2013-07-01 21:56:00,81.1,71.6,29.94,ENE,78,2.0,6.0,73,0.00,,---,0.00,VWS V14.01,2013-07-02 02:56:00,
2013-07-01 22:01:00,81.0,71.5,29.95,ESE,103,2.0,4.0,73,0.00,,---,0.00,VWS V14.01,2013-07-02 03:01:00,
2013-07-01 22:06:00,81.0,71.5,29.95,East,94,1.0,4.0,73,0.00,,---,0.00,VWS V14.01,2013-07-02 03:06:00,
2013-07-01 22:11:00,81.0,71.9,29.95,ENE,78,1.0,4.0,74,0.00,,---,0.00,VWS V14.01,2013-07-02 03:11:00,
2013-07-01 22:16:00,81.0,71.9,29.95,East,84,1.0,4.0,74,0.00,,---,0.00,VWS V14.01,2013-07-02 03:16:00,
2013-07-01 22:21:00,80.9,71.8,29.95,East,86,0.0,4.0,74,0.00,,---,0.00,VWS V14.01,2013-07-02 03:21:00,
2013-07-01 22:26:00,80.8,72.1,29.96,East,83,0.0,4.0,75,0.00,,---,0.00,VWS V14.01,2013-07-02 03:26:00,
2013-07-01 22:31:00,80.8,72.1,29.96,SE,124,0.0,4.0,75,0.00,,---,0.00,VWS V14.01,2013-07-02 03:31:00,
2013-07-01 22:36:00,80.7,72.0,29.96,East,97,1.0,4.0,75,0.00,,---,0.00,VWS V14.01,2013-07-02 03:36:00,
2013-07-01 22:41:00,80.7,72.0,29.96,East,81,2.0,4.0,75,0.00,,---,0.00,VWS V14.01,2013-07-02 03:41:00,
2013-07-01 22:46:00,80.7,72.4,29.96,East,84,0.0,4.0,76,0.00,,---,0.00,VWS V14.01,2013-07-02 03:46:00,
2013-07-01 22:51:00,80.6,72.3,29.97,ENE,76,2.0,4.0,76,0.00,,---,0.00,VWS V14.01,2013-07-02 03:51:00,
2013-07-01 22:56:00,80.6,72.3,29.97,East,85,0.0,4.0,76,0.00,,---,0.00,VWS V14.01,2013-07-02 03:56:00,
2013-07-01 23:01:00,80.5,72.2,29.96,East,85,0.0,0.0,76,0.00,,---,0.00,VWS V14.01,2013-07-02 04:01:00,
2013-07-01 23:06:00,80.4,72.2,29.97,East,85,0.0,0.0,76,0.00,,---,0.00,VWS V14.01,2013-07-02 04:06:00,
2013-07-01 23:11:00,80.3,72.4,29.97,East,85,0.0,0.0,77,0.00,,---,0.00,VWS V14.01,2013-07-02 04:11:00,
2013-07-01 23:16:00,80.3,72.4,29.97,East,93,0.0,1.0,77,0.00,,---,0.00,VWS V14.01,2013-07-02 04:16:00,
2013-07-01 23:21:00,80.4,72.5,29.97,ESE,103,1.0,1.0,77,0.00,,---,0.00,VWS V14.01,2013-07-02 04:21:00,
2013-07-01 23:26:00,80.4,72.5,29.97,ESE,105,1.0,3.0,77,0.00,,---,0.00,VWS V14.01,2013-07-02 04:26:00,
2013-07-01 23:31:00,80.5,72.6,29.97,East,92,0.0,3.0,77,0.00,,---,0.00,VWS V14.01,2013-07-02 04:31:00,
2013-07-01 23:36:00,80.4,72.5,29.97,East,101,0.0,3.0,77,0.00,,---,0.00,VWS V14.01,2013-07-02 04:36:00,
2013-07-01 23:41:00,80.3,72.4,29.97,East,101,0.0,3.0,77,0.00,,---,0.00,VWS V14.01,2013-07-02 04:41:00,
2013-07-01 23:46:00,80.1,72.6,29.97,East,101,0.0,3.0,78,0.00,,---,0.00,VWS V14.01,2013-07-02 04:46:00,
2013-07-01 23:51:00,79.9,72.4,29.97,East,101,0.0,3.0,78,0.00,,---,0.00,VWS V14.01,2013-07-02 04:51:00,
2013-07-01 23:56:00,79.8,72.3,29.97,ESE,102,0.0,3.0,78,0.00,,---,0.00,VWS V14.01,2013-07-02 04:56:00,